This is the latest recevied weather packets stored in our database for station/object WP4PW. If no packets are shown the sender has not sent any weather packets the latest 10 day(s).
| Time | Temp. | Humidity | Pressure | Rain* | Wind** | Luminosity | Snow |
|---|---|---|---|---|---|---|---|
| 1777662771 | 30° C | 80% | 1018 hPa | 0 mm | - | 549 W/m² | - |
| 1777662468 | 30° C | 79% | 1018.1 hPa | 0 mm | - | 633 W/m² | - |
| 1777662163 | 30° C | 78% | 1018 hPa | 0 mm | - | 579 W/m² | - |
| 1777661859 | 30.56° C | 78% | 1017.8 hPa | 0 mm | - | 610 W/m² | - |
| 1777661555 | 30° C | 79% | 1017.9 hPa | 0 mm | - | 605 W/m² | - |
| 1777661252 | 30° C | 80% | 1017.8 hPa | 0 mm | - | 715 W/m² | - |
| 1777660947 | 30° C | 78% | 1017.9 hPa | 0 mm | - | 617 W/m² | - |
| 1777660643 | 30° C | 79% | 1018.1 hPa | 0 mm | - | 554 W/m² | - |
| 1777660341 | 29.44° C | 80% | 1018 hPa | 0 mm | - | 579 W/m² | - |
| 1777660037 | 30° C | 78% | 1018 hPa | 0 mm | - | 757 W/m² | - |
| 1777659733 | 30.56° C | 78% | 1018.3 hPa | 0 mm | - | 653 W/m² | - |
| 1777659430 | 30° C | 78% | 1018.1 hPa | 0 mm | - | 764 W/m² | - |
| 1777659128 | 30.56° C | 78% | 1018.3 hPa | 0 mm | - | 702 W/m² | - |
| 1777658826 | 30.56° C | 76% | 1018.3 hPa | 0 mm | - | 785 W/m² | - |
| 1777658521 | 30° C | 78% | 1018.2 hPa | 0 mm | - | 678 W/m² | - |
| 1777658218 | 30° C | 80% | 1018.2 hPa | 0 mm | - | 595 W/m² | - |
| 1777657915 | 30° C | 79% | 1018.5 hPa | 0 mm | - | 831 W/m² | - |
| 1777657612 | 30° C | 80% | 1018.6 hPa | 0 mm | - | 766 W/m² | - |
| 1777657309 | 30° C | 78% | 1018.8 hPa | 0 mm | - | 812 W/m² | - |
| 1777657007 | 31.11° C | 76% | 1018.7 hPa | 0 mm | - | 752 W/m² | - |
| 1777656704 | 30° C | 77% | 1018.7 hPa | 0 mm | - | 777 W/m² | - |
| 1777656400 | 30° C | 79% | 1018.8 hPa | 0 mm | - | 796 W/m² | - |
| 1777656095 | 30° C | 78% | 1018.8 hPa | 0 mm | - | 810 W/m² | - |
| 1777655791 | 30° C | 77% | 1018.8 hPa | 0 mm | - | 753 W/m² | - |
| 1777655488 | 30° C | 79% | 1018.8 hPa | 0 mm | - | 666 W/m² | - |
* Rain latest hour (hover to see other rain measurements)
** Current wind speed in m/s (hover to see current wind gust speed)